| time (UTC) | temp F | wind direction | speed MPH | gust MPH | rain 1hr in | rain 24hr in | rain mn in | humidity % | barometer mb |
| 20260504232228 | 54 | 23 | 0.0 | 2.0 | 0.03 | 0.03 | 0.03 | 93 | 1011.5 |
| 20260504231656 | 54 | 90 | 0.0 | 1.0 | 0.03 | 0.03 | 0.03 | 93 | 1011.7 |
| 20260504230226 | 54 | 0 | 0.0 | 0.0 | 0.03 | 0.03 | 0.03 | 93 | 1011.7 |
| 20260504225216 | 54 | 338 | 0.0 | 2.0 | 0.03 | 0.03 | 0.03 | 93 | 1011.9 |
| 20260504224213 | 54 | 23 | 0.0 | 2.0 | 0.03 | 0.03 | 0.03 | 93 | 1011.9 |
| 20260504223215 | 55 | 45 | 0.0 | 1.0 | 0.00 | 0.00 | 0.00 | 93 | 1012.2 |
| 20260504222211 | 55 | 338 | 0.0 | 2.0 | 0.00 | 0.00 | 0.00 | 93 | 1012.2 |
| 20260504221213 | 55 | 113 | 0.0 | 0.0 | 0.00 | 0.00 | 0.00 | 92 | 1012.1 |
| 20260504220216 | 55 | 45 | 0.0 | 4.0 | 0.00 | 0.00 | 0.00 | 92 | 1012.1 |
| 20260504215211 | 55 | 68 | 0.0 | 0.0 | 0.00 | 0.00 | 0.14 | 92 | 1012.3 |
| 20260504214210 | 56 | 0 | 0.0 | 0.0 | 0.00 | 0.00 | 0.14 | 92 | 1012.3 |
| 20260504213214 | 57 | 293 | 0.0 | 0.0 | 0.00 | 0.00 | 0.11 | 90 | 1012.2 |
| 20260504212412 | 56 | 23 | 0.0 | 1.0 | 0.06 | 0.11 | 0.11 | 91 | 1012.5 |
| 20260504211410 | 56 | 180 | 0.0 | 0.0 | 0.08 | 0.11 | 0.11 | 91 | 1012.2 |
| 20260504210409 | 57 | 293 | 0.0 | 0.0 | 0.08 | 0.11 | 0.11 | 90 | 1012.2 |
| 20260504205408 | 57 | 45 | 0.0 | 2.0 | 0.11 | 0.11 | 0.11 | 90 | 1012.0 |
| 20260504204849 | 57 | 23 | 0.0 | 2.0 | 0.08 | 0.08 | 0.08 | 89 | 1012.0 |
| 20260504203856 | 58 | 0 | 0.0 | 2.0 | 0.06 | 0.06 | 0.06 | 89 | 1012.0 |
| 20260504202408 | 58 | 270 | 0.0 | 2.0 | 0.06 | 0.06 | 0.06 | 88 | 1012.0 |
| 20260504201831 | 58 | 338 | 0.0 | 2.0 | 0.03 | 0.03 | 0.03 | 87 | 1011.7 |
| 20260504200355 | 59 | 23 | 0.0 | 0.0 | 0.00 | 0.00 | 0.00 | 86 | 1011.7 |
| 20260504195356 | 59 | 23 | 1.0 | 3.0 | 0.00 | 0.00 | 0.00 | 85 | 1011.6 |
| 20260504194355 | 60 | 23 | 2.0 | 5.0 | 0.00 | 0.00 | 0.00 | 84 | 1011.6 |
| 20260504193355 | 60 | 45 | 2.0 | 4.0 | 0.00 | 0.00 | 0.00 | 84 | 1012.1 |
| 20260504192357 | 60 | 45 | 2.0 | 4.0 | 0.00 | 0.00 | 0.00 | 84 | 1012.1 |
| 20260504191357 | 61 | 338 | 1.0 | 5.0 | 0.00 | 0.00 | 0.00 | 84 | 1011.5 |
| 20260504190342 | 61 | 23 | 2.0 | 4.0 | 0.00 | 0.00 | 0.00 | 84 | 1011.5 |
| 20260504185324 | 61 | 338 | 0.0 | 4.0 | 0.00 | 0.00 | 0.00 | 83 | 1011.1 |
| 20260504184326 | 61 | 338 | 1.0 | 4.0 | 0.00 | 0.00 | 0.00 | 83 | 1011.1 |
| 20260504183324 | 61 | 225 | 1.0 | 2.0 | 0.00 | 0.00 | 0.00 | 83 | 1011.1 |
| 20260504182325 | 62 | 23 | 0.0 | 2.0 | 0.00 | 0.00 | 0.00 | 82 | 1011.1 |
| 20260504181806 | 62 | 45 | 0.0 | 0.0 | 0.00 | 0.00 | 0.00 | 82 | 1011.1 |
| 20260504175325 | 63 | 68 | 0.0 | 3.0 | 0.00 | 0.00 | 0.00 | 81 | 1011.1 |
| 20260504174316 | 63 | 45 | 0.0 | 2.0 | 0.00 | 0.00 | 0.00 | 81 | 1011.1 |
| 20260504173312 | 64 | 68 | 1.0 | 4.0 | 0.00 | 0.00 | 0.00 | 80 | 1011.0 |
| 20260504172313 | 64 | 0 | 0.0 | 4.0 | 0.00 | 0.00 | 0.00 | 79 | 1011.0 |
| 20260504171313 | 65 | 338 | 0.0 | 2.0 | 0.00 | 0.00 | 0.00 | 79 | 1010.8 |
| 20260504170327 | 65 | 23 | 0.0 | 0.0 | 0.00 | 0.00 | 0.00 | 79 | 1010.8 |
| 20260504160305 | 67 | 180 | 0.0 | 1.0 | 0.00 | 0.00 | 0.00 | 75 | 1011.3 |
| 20260504150358 | 66 | 90 | 1.0 | 2.0 | 0.00 | 0.00 | 0.00 | 69 | 1011.1 |
| 20260504140400 | 70 | 158 | 1.0 | 2.0 | 0.00 | 0.00 | 0.00 | 66 | 1011.5 |
| 20260504130330 | 72 | 203 | 1.0 | 2.0 | 0.00 | 0.00 | 0.00 | 65 | 1011.7 |
| 20260504120316 | 69 | 270 | 2.0 | 4.0 | 0.00 | 0.00 | 0.00 | 70 | 1011.6 |
| 20260504110302 | 67 | 158 | 1.0 | 4.0 | 0.00 | 0.00 | 0.00 | 73 | 1012.0 |
| 20260504100248 | 67 | 248 | 2.0 | 4.0 | 0.00 | 0.00 | 0.00 | 79 | 1012.0 |
| 20260504081348 | 62 | 180 | 1.0 | 3.0 | 0.00 | 0.00 | 0.00 | 90 | 1011.5 |
| 20260504080349 | 62 | 23 | 1.0 | 4.0 | 0.00 | 0.00 | 0.00 | 91 | 1011.5 |
| 20260504070331 | 57 | 338 | 1.0 | 0.0 | 0.00 | 0.00 | 0.00 | 96 | 1011.3 |
| 20260504050308 | 55 | 180 | 0.0 | 0.0 | 0.00 | 0.00 | 0.00 | 96 | 1010.4 |
| 20260504044252 | 55 | 270 | 0.0 | 0.0 | 0.00 | 0.00 | 0.00 | 96 | 1010.5 |
| 20260504043239 | 55 | 293 | 0.0 | 0.0 | 0.00 | 0.00 | 0.00 | 96 | 1010.5 |
| 20260504042237 | 55 | 248 | 0.0 | 3.0 | 0.00 | 0.00 | 0.00 | 96 | 1010.5 |
| 20260504041237 | 54 | 180 | 0.0 | 2.0 | 0.00 | 0.00 | 0.00 | 96 | 1010.5 |
| 20260504040242 | 54 | 248 | 1.0 | 3.0 | 0.00 | 0.00 | 0.00 | 96 | 1010.5 |
| 20260504035237 | 54 | 180 | 1.0 | 3.0 | 0.00 | 0.00 | 0.00 | 96 | 1010.5 |
| 20260504034237 | 54 | 158 | 1.0 | 3.0 | 0.00 | 0.00 | 0.00 | 96 | 1010.5 |
| 20260504033226 | 54 | 180 | 0.0 | 0.0 | 0.00 | 0.00 | 0.00 | 96 | 1010.6 |
| 20260504032708 | 54 | 225 | 0.0 | 0.0 | 0.00 | 0.00 | 0.00 | 96 | 1010.6 |
| 20260504031222 | 54 | 180 | 1.0 | 2.0 | 0.00 | 0.00 | 0.00 | 96 | 1010.4 |
| 20260504030228 | 54 | 180 | 1.0 | 3.0 | 0.00 | 0.00 | 0.00 | 96 | 1010.4 |
| 20260504025223 | 55 | 180 | 0.0 | 1.0 | 0.00 | 0.00 | 0.00 | 96 | 1010.3 |
| 20260504024225 | 55 | 158 | 0.0 | 0.0 | 0.00 | 0.00 | 0.00 | 96 | 1010.3 |
| 20260504023228 | 55 | 180 | 0.0 | 0.0 | 0.00 | 0.00 | 0.00 | 95 | 1010.1 |
| 20260504022223 | 55 | 248 | 0.0 | 2.0 | 0.00 | 0.00 | 0.00 | 95 | 1010.1 |
| 20260504021225 | 56 | 225 | 0.0 | 3.0 | 0.00 | 0.00 | 0.00 | 96 | 1010.3 |
| 20260504020222 | 55 | 180 | 0.0 | 0.0 | 0.00 | 0.00 | 0.00 | 95 | 1010.3 |
| 20260504015450 | 55 | 180 | 0.0 | 0.0 | 0.00 | 0.00 | 0.00 | 95 | 1010.3 |
| 20260504013953 | 55 | 180 | 0.0 | 0.0 | 0.00 | 0.00 | 0.00 | 95 | 1010.1 |
| 20260504012953 | 55 | 180 | 0.0 | 0.0 | 0.00 | 0.00 | 0.00 | 95 | 1010.1 |
| 20260504011955 | 55 | 203 | 0.0 | 2.0 | 0.00 | 0.00 | 0.00 | 95 | 1010.5 |
| 20260504011433 | 56 | 180 | 0.0 | 2.0 | 0.00 | 0.00 | 0.00 | 95 | 1010.5 |
| 20260504010442 | 56 | 248 | 0.0 | 1.0 | 0.00 | 0.00 | 0.00 | 95 | 1010.3 |
| 20260504004946 | 56 | 248 | 0.0 | 2.0 | 0.00 | 0.00 | 0.00 | 95 | 1010.3 |
| 20260504003939 | 56 | 225 | 1.0 | 2.0 | 0.00 | 0.00 | 0.00 | 95 | 1010.7 |
| 20260504002940 | 56 | 225 | 1.0 | 3.0 | 0.00 | 0.00 | 0.00 | 95 | 1010.7 |
| 20260504001939 | 56 | 203 | 2.0 | 5.0 | 0.00 | 0.00 | 0.00 | 95 | 1010.6 |
| 20260504000939 | 57 | 180 | 3.0 | 5.0 | 0.00 | 0.00 | 0.00 | 95 | 1010.6 |
| 20260503235924 | 57 | 158 | 1.0 | 4.0 | 0.00 | 0.00 | 0.00 | 95 | 1010.6 |
| 20260503234929 | 56 | 248 | 1.0 | 3.0 | 0.00 | 0.00 | 0.00 | 95 | 1010.6 |
| 20260503233925 | 57 | 180 | 2.0 | 4.0 | 0.00 | 0.00 | 0.00 | 95 | 1011.0 |
| 20260503232923 | 56 | 248 | 0.0 | 4.0 | 0.00 | 0.00 | 0.00 | 95 | 1011.0 |